Probability
1 1 2 4 3 2 2 3 2 1 1 1 1 2 3 3 2 1 2 5 6 7 5 2 1 1 1 1 2 3 2 0 0 0 0 0 0 0 0 0 0 0 0
4 3 3 4 4 4 4 4 4 3 3 3 2 2 3 3 3 2 3 4 6 7 7 5 3 3 2 2 2 3 2 0 0 0 0 0 0 0 0 0 1 1 1
6 6 5 4 5 5 6 5 5 4 4 4 3 3 4 4 3 3 3 3 4 6 8 7 6 5 3 1 1 1 1 0 0 0 0 0 0 0 0 1 2 2 2
4 5 6 7 6 6 7 6 6 5 4 4 5 5 4 3 3 3 3 3 3 5 6 6 6 5 3 1 0 0 0 0 0 0 0 0 0 0 0 1 2 3 3
3 5 8 9 8 7 7 6 6 6 4 5 5 5 4 3 2 2 2 2 2 3 3 3 3 2 1 0 0 0 0 1 1 1 1 1 1 1 1 1 2 3 3
3 6 10 10 9 8 7 7 6 6 5 5 5 4 4 3 2 2 2 1 1 1 1 2 1 1 1 1 0 0 1 2 3 3 2 2 2 3 2 2 3 3 3
5 7 10 10 9 9 9 7 6 6 6 5 5 5 5 5 3 2 2 3 2 2 2 3 2 2 2 1 0 0 1 3 4 4 4 3 3 3 3 3 3 3 3
7 7 8 9 9 9 8 7 6 6 6 5 5 5 6 6 6 4 5 5 3 3 4 4 3 1 1 1 0 0 0 2 3 4 4 4 3 2 2 1 2 2 1
9 8 7 8 8 7 6 5 6 7 6 5 5 5 5 6 7 6 5 4 2 2 3 3 2 0 0 0 0 0 0 0 1 2 3 4 4 3 1 1 1 1 1
10 9 8 8 7 7 5 5 5 6 6 5 5 5 5 5 5 5 3 2 2 2 2 1 1 1 0 0 0 0 0 0 0 1 2 4 5 4 3 1 1 1 1
11 10 10 9 8 7 7 6 5 5 6 7 6 5 4 3 3 3 2 2 2 2 2 3 3 2 1 0 0 0 0 0 0 0 1 2 3 3 3 2 1 1 0
12 11 10 10 9 8 7 7 6 6 7 8 7 5 3 2 2 2 2 2 2 3 4 4 3 2 1 0 0 0 0 0 0 0 0 1 1 1 1 2 2 1 1
15 13 11 10 9 7 5 6 8 8 8 8 7 5 2 2 2 2 1 2 3 4 5 5 4 3 1 0 0 0 0 0 0 0 0 0 0 0 0 1 2 2 2
17 17 14 11 9 6 4 5 8 10 10 8 6 4 3 2 2 1 1 1 3 5 5 5 5 5 3 2 0 0 0 0 0 0 0 0 0 0 0 1 1 1 2
16 18 17 14 11 8 6 6 8 10 11 9 6 4 4 3 3 2 1 1 1 3 4 4 6 7 6 4 1 0 0 0 0 0 0 0 0 0 0 1 1 0 1
14 16 17 16 13 11 8 7 8 9 10 8 6 5 5 5 4 3 3 3 2 2 3 3 5 7 7 5 2 1 1 0 0 0 0 0 0 0 0 0 0 0 0
16 18 18 16 14 12 10 9 9 8 8 7 6 6 7 8 6 4 5 6 5 4 4 3 4 6 7 6 4 3 2 1 1 0 0 0 0 0 0 0 0 0 0
19 20 21 17 14 12 11 12 12 10 9 9 8 7 9 9 8 7 7 7 7 6 5 4 4 6 8 8 7 5 4 3 2 0 0 0 0 0 0 0 0 0 0
23 24 24 21 18 16 16 17 18 16 14 13 11 10 10 9 9 9 8 8 7 6 6 5 5 6 7 7 7 6 5 5 3 1 0 0 0 0 0 0 0 0 0
28 29 28 26 24 22 20 21 22 20 17 15 15 12 10 9 9 9 9 9 8 7 6 5 5 6 6 6 6 6 6 7 6 4 2 2 1 1 0 0 0 0 0
33 33 31 29 27 24 20 21 23 21 17 16 15 13 11 10 9 9 9 10 9 9 7 7 6 6 5 5 6 6 7 8 8 7 6 5 4 3 1 1 1 0 0
39 38 35 33 29 24 18 17 19 19 18 16 15 14 11 10 9 9 9 9 9 9 8 8 8 7 6 6 6 6 7 7 9 9 8 7 6 5 4 3 2 1 0
44 43 40 37 32 25 17 11 11 16 19 19 18 16 13 11 11 10 9 9 8 8 7 8 9 9 8 8 7 7 6 7 8 10 8 7 6 6 5 4 3 2 1
46 45 41 37 33 25 15 8 7 13 19 21 21 20 18 15 12 10 10 10 9 8 7 7 8 8 8 8 8 7 6 7 8 9 8 7 7 6 5 4 3 2 1
45 42 39 36 33 26 15 7 7 13 19 21 21 21 20 16 11 8 10 12 11 10 8 6 5 5 5 6 6 6 6 7 7 7 7 8 8 7 7 5 4 3 2
43 40 37 35 34 27 15 6 7 13 18 19 19 19 18 15 11 7 9 12 12 11 9 6 3 2 3 4 4 4 6 6 6 6 7 9 9 9 8 6 4 3 3
Wind_Speed
3 3 2 1 1 2 2 2 1 2 2 3 2 2 3 4 5 4 5 9 9 8 8 7 7 6 6 5 6 7 8 8 7 7 7 7 7 8 7 8 7 7 7
2 2 2 1 1 2 2 2 2 2 2 2 2 2 3 4 4 5 5 6 9 8 7 6 6 5 6 6 6 6 6 6 6 6 6 6 6 6 6 6 6 7 7
3 2 2 1 1 1 2 2 2 2 2 2 3 3 3 3 3 4 5 4 5 6 7 6 6 5 5 5 5 6 6 5 5 5 6 6 6 5 6 5 5 5 6
2 1 2 2 1 1 2 2 1 2 2 2 2 2 3 3 3 3 4 4 4 4 5 6 5 5 5 5 4 4 5 5 5 5 5 6 6 6 6 6 5 4 5
2 1 1 2 1 1 1 1 2 2 2 2 2 3 2 2 3 3 4 4 4 4 4 5 6 5 5 4 3 3 3 4 4 4 5 5 5 6 6 6 6 4 4
2 1 1 1 1 1 1 2 2 2 1 2 2 3 2 2 2 2 3 3 3 4 4 4 3 3 4 3 3 2 2 2 3 3 4 4 5 5 5 6 5 4 4
1 1 2 1 1 1 2 2 2 1 1 2 2 2 2 2 2 2 3 3 3 3 4 4 3 2 2 4 4 3 2 1 1 1 2 3 3 4 5 5 5 4 4
1 2 2 1 1 1 1 2 2 1 1 1 2 2 1 2 2 2 2 2 3 2 3 4 3 3 2 2 2 3 2 1 1 0 0 1 3 4 4 5 5 4 4
2 2 2 1 1 1 1 1 1 2 1 0 1 1 1 1 1 1 2 2 2 2 2 3 4 3 2 2 2 2 3 2 2 1 1 1 2 3 4 4 4 4 4
2 2 2 1 1 1 1 1 2 0 1 1 0 1 1 2 2 2 1 1 2 2 2 2 3 3 4 3 4 5 5 4 4 4 4 3 3 3 4 4 4 4 4
2 2 2 1 1 1 1 0 1 0 0 0 1 1 1 1 2 2 2 2 1 1 2 2 3 3 3 3 3 5 7 6 6 5 5 4 4 4 3 3 3 3 3
2 2 2 1 1 1 1 1 0 1 0 0 1 0 0 1 1 1 2 3 2 1 2 2 3 3 3 3 5 8 7 6 6 6 6 6 5 5 4 3 4 4 4
2 2 2 2 1 1 1 1 1 1 1 1 1 1 1 1 1 1 2 2 2 2 2 2 3 3 4 4 4 7 6 6 6 7 7 7 6 6 5 5 5 5 5
2 3 3 2 2 1 1 1 1 1 1 1 1 0 0 1 0 1 2 3 2 2 2 3 2 3 3 4 5 6 4 7 7 6 6 7 7 7 6 6 6 6 6
3 4 3 3 2 1 0 1 1 0 1 1 1 1 1 1 1 1 2 2 2 2 2 3 2 3 3 4 6 4 4 6 7 6 6 6 7 7 7 7 7 7 7
2 2 2 2 2 2 1 0 0 0 1 1 1 1 0 0 0 1 2 2 1 2 2 2 2 4 4 5 6 5 4 8 7 6 6 6 6 6 7 7 7 7 7
2 2 1 1 1 1 1 0 1 0 1 1 1 1 1 1 0 0 1 1 1 2 2 2 2 3 4 3 4 4 4 4 4 7 6 6 6 6 6 6 6 6 6
3 2 2 1 1 1 1 0 0 1 0 0 0 1 1 1 1 0 0 0 1 2 3 3 3 3 3 4 4 4 4 4 4 7 8 7 6 6 5 5 5 5 5
3 2 2 2 1 1 1 0 1 1 0 1 1 1 1 1 1 1 0 1 1 2 3 3 3 2 2 3 3 2 3 3 4 6 7 7 7 6 6 5 5 4 4
3 3 2 2 2 1 0 0 0 1 1 1 1 1 2 1 1 1 0 1 1 2 3 3 3 3 2 3 2 2 2 2 2 4 4 6 7 7 7 6 5 5 5
5 3 3 2 2 2 1 1 1 2 1 1 1 1 3 4 4 2 1 1 1 1 2 2 3 3 2 3 3 2 2 2 2 3 3 4 4 4 5 6 7 7 6
4 3 3 3 3 1 2 3 1 1 1 1 1 1 3 3 4 4 4 3 1 1 1 2 2 3 3 3 2 2 2 2 2 3 3 4 5 4 5 4 7 9 9
4 4 3 3 3 3 4 3 2 1 1 1 1 1 1 2 3 2 3 3 2 2 2 2 2 2 3 3 3 3 3 3 2 2 3 3 3 4 4 5 10 11 10
3 3 3 3 3 3 4 3 1 2 2 1 1 1 1 2 2 1 2 2 1 0 0 1 1 1 2 1 2 2 2 2 2 2 2 2 2 2 3 3 10 11 11
4 4 3 3 3 3 4 4 2 2 2 2 2 1 1 2 3 2 1 1 1 1 1 2 2 1 2 3 2 1 1 2 2 2 2 2 2 2 2 3 6 11 10
4 4 3 3 3 3 4 4 3 3 3 3 2 2 2 2 3 3 2 2 2 2 2 2 2 2 3 4 5 4 3 2 2 2 2 2 2 1 1 2 3 4 5
Wind_Direction
93 92 79 84 111 124 129 122 109 106 96 86 86 100 96 101 104 108 121 135 136 140 149 155 160 171 171 167 182 192 195 200 205 204 209 216 220 220 219 222 221 219 217
100 100 101 92 95 94 97 110 119 111 102 102 91 81 94 97 107 119 123 127 130 134 138 145 151 160 164 167 169 170 179 188 193 199 205 210 216 220 221 223 222 219 219
117 127 136 143 137 142 135 135 118 108 129 119 102 91 91 95 107 118 131 133 135 137 139 139 140 145 159 169 177 182 188 193 197 201 204 206 210 212 213 218 221 217 215
138 150 154 142 139 140 135 134 130 117 96 100 102 97 101 108 115 125 125 133 135 136 136 137 136 133 141 156 168 180 193 198 200 200 200 206 211 214 214 212 214 217 217
145 143 126 115 173 154 127 122 114 103 101 108 113 120 114 110 113 122 120 123 132 133 136 134 134 128 129 137 146 155 174 190 193 192 198 212 218 215 211 204 203 207 210
125 119 133 118 105 99 99 92 113 137 131 116 91 91 101 114 117 109 107 110 114 121 121 129 139 130 120 112 113 126 134 154 173 190 204 209 215 209 202 194 195 203 204
112 116 83 119 111 106 108 116 119 129 128 125 110 91 80 83 89 98 97 98 99 105 109 119 136 127 123 100 79 79 88 107 133 172 216 218 207 192 185 187 187 182 180
166 144 113 116 101 109 115 130 134 125 177 156 141 134 126 105 53 80 96 102 93 104 125 125 119 118 117 113 90 78 60 50 71 87 53 182 186 175 174 182 178 177 179
91 71 111 119 100 117 125 147 161 169 194 254 123 138 144 132 123 83 74 92 102 96 94 106 113 112 105 90 96 70 62 45 48 60 84 122 157 173 176 172 175 176 164
129 138 129 132 118 109 115 211 145 228 168 227 235 188 151 143 149 139 109 110 113 107 105 103 100 100 97 91 83 76 72 61 61 61 64 79 116 134 151 165 171 176 169
157 144 137 134 127 133 137 80 83 308 217 228 253 207 154 154 148 151 163 163 137 135 134 112 107 105 103 102 94 83 78 72 69 69 73 79 90 105 119 141 155 160 165
166 159 150 150 156 142 142 181 207 213 219 288 303 290 203 177 176 149 152 160 151 153 143 131 128 123 114 101 95 93 89 85 79 76 75 78 83 89 95 105 113 120 124
167 160 141 141 148 150 180 182 210 220 200 206 243 271 301 311 152 128 142 149 142 155 144 143 140 135 124 111 107 105 98 96 87 80 76 76 78 80 80 83 92 97 98
153 139 136 145 148 165 185 160 232 204 167 205 237 191 274 297 99 128 146 146 153 160 158 149 133 133 120 122 127 120 103 104 97 89 84 81 79 78 79 81 86 91 92
150 142 145 146 145 145 125 158 220 123 125 150 214 199 225 211 151 153 153 174 171 167 162 159 146 139 136 127 144 139 127 120 112 103 96 92 89 86 85 87 91 89 85
99 131 144 154 158 154 155 183 216 138 154 177 203 187 214 164 176 168 184 212 205 172 158 148 149 150 144 142 149 145 136 137 134 127 116 106 99 95 94 93 92 91 90
143 149 163 163 151 129 131 166 192 138 158 187 210 172 174 154 156 223 196 215 170 142 137 134 132 138 140 137 142 149 160 156 152 150 140 130 120 112 107 104 101 99 97
164 168 180 179 173 148 141 146 150 103 156 208 223 158 161 149 146 322 337 114 122 140 143 145 142 147 150 154 164 175 173 161 155 158 159 152 143 134 128 123 118 114 109
172 175 177 175 173 167 159 144 124 107 92 104 103 151 135 135 138 95 17 102 134 138 136 147 154 157 157 167 163 183 165 152 159 153 161 164 158 152 151 146 141 137 131
175 183 183 175 181 166 117 9 152 134 103 84 73 69 79 88 91 87 139 115 128 131 144 156 153 158 164 167 161 181 172 182 170 167 163 163 170 171 171 168 167 165 158
185 181 177 175 176 172 169 157 203 150 139 131 106 92 85 87 78 61 72 80 117 138 159 153 155 157 162 171 190 193 180 189 195 172 168 174 173 186 190 192 192 189 180
180 179 177 175 188 186 104 99 73 110 121 144 146 130 128 120 105 93 84 80 93 165 174 168 172 168 173 186 186 198 187 197 213 180 179 196 182 193 191 193 195 193 190
180 182 182 167 150 125 124 111 95 192 176 175 172 181 213 124 132 127 114 107 92 128 172 185 176 177 178 190 190 207 209 213 223 194 180 207 190 198 197 190 184 189 191
181 188 187 172 165 164 166 155 167 223 200 181 182 163 138 130 130 114 167 164 178 118 210 176 145 168 167 169 204 218 221 221 226 204 184 220 207 203 191 175 184 189 193
182 190 183 182 176 168 183 177 186 218 201 201 196 189 169 135 121 107 167 180 188 204 148 113 124 145 174 177 184 223 241 226 240 220 193 212 219 201 189 183 192 193 194
188 193 190 185 171 163 180 183 199 234 213 201 195 175 150 146 154 165 216 217 218 223 204 189 208 214 210 204 199 207 221 230 246 233 198 202 212 196 211 184 169 183 197